This demonstration page uses our WeatherBlox Daily Observations layout. Learn more.

Left ArrowRight Arrow

34.74481, -87.66753

Hourly Observations for February 8, 2020

Temp ( °F °C ) Dew Point ( °F °C ) Humidity (%) Winds ( mph kmh ) Pressure ( in mb ) Visibility ( mi km ) Precip ( " mm )
12:53 am 00:53 Cloudy 36 2.2 30 -1.1 79 79 ESE 5 7 30.13 1020 10 16 0.00 0.00
1:53 am 01:53 Mostly Clear 35 1.7 30 -1.1 82 82 E 3 6 30.13 1020 10 16 0.00 0.00
2:53 am 02:53 Cloudy 36 2.2 30 -1.1 79 79 E 3 6 30.12 1020 10 16 0.00 0.00
3:53 am 03:53 Cloudy 38 3.3 32 0 79 79 ENE 3 6 30.11 1020 10 16 0.00 0.00
4:53 am 04:53 Cloudy 38 3.3 32 0 79 79 NNE 6 9 30.12 1020 10 16 0.00 0.00
5:53 am 05:53 Cloudy 39 3.9 34 1.1 82 82 Calm 30.14 1021 10 16 0.00 0.00
6:53 am 06:53 Cloudy 39 3.9 35 1.7 86 86 Calm 30.17 1022 10 16 0.00 0.00
7:53 am 07:53 Sunny 40 4.4 36 2.2 86 86 Calm 30.19 1023 10 16 0.00 0.00
8:53 am 08:53 Sunny 44 6.7 35 1.7 71 71 VRB 3 6 30.21 1023 10 16 0.00 0.00
9:53 am 09:53 Sunny 48 8.9 33 0.6 56 56 VRB 7 11 30.22 1024 10 16 0.00 0.00
10:53 am 10:53 Sunny 51 10.6 32 0 48 48 NW 8 13 30.24 1024 10 16 0.00 0.00
11:53 am 11:53 Sunny 53 11.7 30 -1.1 41 41 NW 13 20 30.25 1024 10 16 0.00 0.00
12:53 pm 12:53 Mostly Sunny 54 12.2 29 -1.7 38 38 WNW 17 28 30.24 1024 10 16 0.00 0.00
1:53 pm 13:53 Partly Cloudy 55 12.8 30 -1.1 38 38 NW 15 24 30.23 1024 10 16 0.00 0.00
2:53 pm 14:53 Sunny 55 12.8 28 -2.2 35 35 NW 14 22 30.23 1024 10 16 0.00 0.00
3:53 pm 15:53 Sunny 54 12.2 27 -2.8 35 35 WNW 13 20 30.24 1024 10 16 0.00 0.00
4:53 pm 16:53 Sunny 53 11.7 27 -2.8 37 37 WNW 9 15 30.27 1025 10 16 0.00 0.00
5:53 pm 17:53 Clear 47 8.3 28 -2.2 48 48 NW 3 6 30.28 1025 10 16 0.00 0.00
6:53 pm 18:53 Clear 45 7.2 29 -1.7 54 54 Calm 30.30 1026 10 16 0.00 0.00
7:53 pm 19:53 Clear 41 5 32 0 70 70 SSE 3 6 30.31 1027 10 16 0.00 0.00
8:53 pm 20:53 Clear 41 5 28 -2.2 60 60 Calm 30.32 1027 10 16 0.00 0.00
9:53 pm 21:53 Clear 37 2.8 30 -1.1 76 76 E 3 6 30.33 1027 10 16 0.00 0.00
10:53 pm 22:53 Clear 36 2.2 32 0 86 86 E 3 6 30.33 1027 10 16 0.00 0.00
11:53 pm 23:53 Clear 36 2.2 31 -0.6 82 82 Calm 30.32 1027 10 16 0.00 0.00

Powered by AerisWeather